This demonstration page uses our WeatherBlox Daily Observations layout. Learn more.

Left ArrowRight Arrow

Hourly Observations for April 15, 2018

Temp ( °F °C ) Dew Point ( °F °C ) Humidity (%) Winds ( mph kmh ) Pressure ( in mb ) Visibility ( mi km ) Precip ( " mm )
12:53 am 00:53 Cloudy with Light Rain 61 16.1 59 15 93 93 VRB 7 11 29.82 1010 6 10 0.16 4.06
1:53 am 01:53 Cloudy with Light Rain 61 16.1 59 15 93 93 Calm 29.80 1009 8 13 0.11 2.79
2:53 am 02:53 Cloudy with Light Rain 61 16.1 59 15 93 93 VRB 5 7 29.77 1008 9 14 0.06 1.52
3:11 am 03:11 Cloudy with Light Rain 61 16.1 59 15 93 93 Calm 29.77 1008 10 16 0.00 0.03
3:22 am 03:22 Cloudy with Light Rain 61 16.1 59 15 93 93 SE 3 6 29.77 1008 10 16 0.01 0.25
3:29 am 03:29 Cloudy with Light Rain 61 16.1 59 15 93 93 SE 3 6 29.77 1008 8 13 0.02 0.51
3:53 am 03:53 Cloudy with Light Rain 61 16.1 59 15 93 93 ESE 6 9 29.72 1006 8 13 0.04 1.02
4:02 am 04:02 Cloudy with Light Rain 61 16.1 59 15 93 93 VRB 7 11 29.71 1006 9 14 0.00 0.03
4:12 am 04:12 Cloudy with Light Rain 61 16.1 59 15 93 93 VRB 5 7 29.74 1007 9 14 0.01 0.25
4:43 am 04:43 Cloudy with Rain 61 16.1 59 15 93 93 ESE 8 13 29.71 1006 6 10 0.05 1.27
4:53 am 04:53 Cloudy with Light Rain 61 16.1 59 15 93 93 ESE 6 9 29.70 1006 8 13 0.06 1.52
5:14 am 05:14 Cloudy with Light Rain 61 16.1 59 15 93 93 ESE 8 13 29.68 1005 9 14 0.01 0.25
5:29 am 05:29 Cloudy with Light Rain 61 16.1 59 15 93 93 VRB 3 6 29.68 1005 10 16 0.01 0.25
5:53 am 05:53 Cloudy with Light Rain 61 16.1 59 15 93 93 SSE 7 11 29.68 1005 10 16 0.01 0.25
6:53 am 06:53 Cloudy with Light Rain 61 16.1 59 15 93 93 VRB 3 6 29.65 1004 10 16 0.00 0.03
7:53 am 07:53 Cloudy with Light Rain 61 16.1 59 15 93 93 VRB 6 9 29.62 1003 7 11 0.03 0.76
8:09 am 08:09 Cloudy with Light Rain 62 16.7 60 15.6 93 93 SSE 8 13 29.62 1003 5 8 0.01 0.25
8:38 am 08:38 Cloudy with Light Rain 62 16.7 60 15.6 93 93 ESE 6 9 29.62 1003 9 14 0.03 0.76
8:53 am 08:53 Cloudy 62 16.7 60 15.6 93 93 SE 8 13 29.60 1002 10 16 0.03 0.76
9:07 am 09:07 Cloudy with Light Rain 62 16.7 60 15.6 93 93 SE 7 11 29.59 1002 5 8 0.00 0.03
9:42 am 09:42 Cloudy with Light Rain 64 17.8 60 15.6 87 87 S 10 17 29.59 1002 10 16 0.01 0.25
9:50 am 09:50 Cloudy with Rain 63 17 61 16 94 94 SW 18 30 29.62 1003 3 4 0.04 1.02
9:53 am 09:53 Cloudy with Heavy Rain 59 15 56 13.3 90 90 WSW 17 28 29.62 1003 2 3 0.07 1.78
9:57 am 09:57 Cloudy with Heavy Rain 55 12.8 54 12.2 96 96 W 22 35 29.62 1003 1 1 0.08 2.03
10:03 am 10:03 Cloudy with Heavy Rain 54 12.2 52 11.1 93 93 W 18 30 29.65 1004 1 1 0.16 4.06
10:08 am 10:08 Cloudy with Heavy Rain 54 12.2 52 11.1 93 93 W 16 26 29.65 1004 1 2 0.18 4.57
10:13 am 10:13 Cloudy with Rain 54 12.2 52 11.1 93 93 W 10 17 29.65 1004 2 3 0.20 5.08
10:20 am 10:20 Cloudy with Light Rain 54 12.2 52 11.1 93 93 W 14 22 29.65 1004 3 5 0.21 5.33
10:31 am 10:31 Cloudy with Light Rain 54 12.2 51 10.6 90 90 W 12 19 29.65 1004 3 4 0.23 5.84
10:38 am 10:38 Cloudy with Rain 54 12.2 51 10.6 90 90 W 13 20 29.65 1004 3 5 0.24 6.10
10:53 am 10:53 Cloudy with Light Rain 53 11.7 51 10.6 93 93 W 10 17 29.65 1004 5 8 0.26 6.60
11:53 am 11:53 Cloudy with Rain 53 11.7 51 10.6 93 93 W 3 6 29.67 1005 3 5 0.09 2.29
12:08 pm 12:08 Cloudy with Rain 53 11.7 51 10.6 93 93 WSW 3 6 29.68 1005 3 4 0.04 1.02
12:19 pm 12:19 Cloudy with Rain 53 11.7 51 10.6 93 93 SW 6 9 29.68 1005 3 4 0.07 1.78
12:53 pm 12:53 Cloudy with Light Rain 53 11.7 52 11.1 96 96 SW 3 6 29.66 1004 4 6 0.16 4.06
1:53 pm 13:53 Cloudy with Rain 53 11.7 51 10.6 93 93 SSW 6 9 29.66 1004 4 6 0.06 1.52
2:53 pm 14:53 Cloudy with Rain 53 11.7 50 10 89 89 Calm 29.64 1004 5 8 0.05 1.27
3:53 pm 15:53 Cloudy 53 11.7 50 10 89 89 W 9 15 29.65 1004 10 16 0.01 0.25
4:28 pm 16:28 Cloudy with Mist and Fog 48 8.9 46 7.8 93 93 W 8 13 29.71 1006 4 6 0.00 0.03
4:53 pm 16:53 Cloudy 49 9.4 46 7.8 90 90 W 9 15 29.67 1005 10 16 0.00 0.03
5:20 pm 17:20 Cloudy 50 10 46 7.8 86 86 W 9 15 29.65 1004 10 16 0.00 0.00
5:31 pm 17:31 Cloudy 50 10 46 7.8 86 86 W 6 9 29.65 1004 10 16 0.00 0.00
5:53 pm 17:53 Cloudy 51 10.6 46 7.8 83 83 WNW 9 15 29.65 1004 10 16 0.00 0.00
6:27 pm 18:27 Cloudy 52 11.1 45 7.2 77 77 W 7 11 29.68 1005 10 16 0.00 0.00
6:53 pm 18:53 Cloudy 52 11.1 45 7.2 77 77 W 6 9 29.69 1005 10 16 0.00 0.00
7:06 pm 19:06 Cloudy 51 10.6 44 6.7 77 77 W 7 11 29.68 1005 10 16 0.00 0.00
7:53 pm 19:53 Cloudy 51 10.6 41 5 69 69 W 10 17 29.69 1005 10 16 0.00 0.00
8:53 pm 20:53 Cloudy 49 9.4 39 3.9 69 69 W 8 13 29.72 1006 10 16 0.00 0.00
9:53 pm 21:53 Cloudy 48 8.9 38 3.3 68 68 W 13 20 29.72 1006 10 16 0.00 0.00
10:53 pm 22:53 Cloudy 47 8.3 38 3.3 71 71 W 9 15 29.74 1007 10 16 0.00 0.00
11:53 pm 23:53 Cloudy 46 7.8 37 2.8 71 71 W 8 13 29.76 1008 10 16 0.00 0.00

Powered by AerisWeather